Borovets, Bulgaria 16 day weather forecast

Slopes altitude range 1300 m - 2550m

Number of lifts: 14 Pistes: 58km

In some cases the lift and piste totals shown are for the ski domain (e.g. Three Valleys) rather than individual resort (e.g. Courchevel)

Overview

The 16 day weather forecast is fully updated 4 times every day.

    • Sun 26 MAY 2019
    • Sun 26
    • 16C 24C
    • Mon 27 MAY 2019
    • Mon 27
    • 18C 24C
    • Tue 28 MAY 2019
    • Tue 28
    • 18C 26C
    • Wed 29 MAY 2019
    • Wed 29
    • 18C 25C
    • Thu 30 MAY 2019
    • Thu 30
    • 17C 20C
    • Fri 31 MAY 2019
    • Fri 31
    • 12C 15C
    • Sat 01 JUN 2019
    • Sat 01
    • 9C 11C
    • Sun 02 JUN 2019
    • Sun 02
    • 7C 13C
    • Mon 03 JUN 2019
    • Mon 03
    • 11C 15C
    • Tue 04 JUN 2019
    • Tue 04
    • 14C 17C
    • Wed 05 JUN 2019
    • Wed 05
    • 13C 18C
    • Thu 06 JUN 2019
    • Thu 06
    • 14C 21C
    • Fri 07 JUN 2019
    • Fri 07
    • 15C 22C
    • Sat 08 JUN 2019
    • Sat 08
    • 16C 24C
    • Sun 09 JUN 2019
    • Sun 09
    • 17C 25C
    • Mon 10 JUN 2019
    • Mon 10
    • 17C 25C

Date:

Time Type 0°C level Temp Chill Snow Cloud Speed Gust Dir Press
12:00 3300m 24°C 24_3 0cm 57% 3mph 5mph 1016mB
15:00 3210m 24°C 24_0 0cm 55% 0mph 3mph 1015mB
18:00 3540m 24°C 24_3 0cm 54% 3mph 4mph 1015mB
21:00 3706m 13°C 13_3 0cm 63% 3mph 4mph 1017mB
0:00 3743m 12°C 12_4 0cm 41% 4mph 5mph 1016mB
3:00 3709m 11°C 11_4 0cm 72% 4mph 5mph 1016mB
6:00 3836m 11°C 11_5 0cm 66% 5mph 9mph 1016mB
9:00 3908m 18°C 18_6 0cm 70% 6mph 9mph 1015mB
12:00 4036m 24°C 24_8 0cm 79% 8mph 10mph 1014mB
15:00 3877m 23°C 23_6 0cm 100% 6mph 11mph 1013mB
18:00 3846m 23°C 23_5 0cm 99% 5mph 14mph 1013mB
21:00 3791m 13°C 13_5 0cm 43% 5mph 7mph 1013mB
0:00 3742m 12°C 12_5 0cm 22% 5mph 7mph 1012mB
3:00 3675m 11°C 11_5 0cm 0% 5mph 7mph 1011mB
6:00 3629m 11°C 11_4 0cm 0% 4mph 9mph 1010mB
9:00 3258m 18°C 18_4 0cm 0% 4mph 14mph 1009mB
12:00 3352m 26°C 26_4 0cm 8% 4mph 12mph 1007mB
15:00 3355m 26°C 26_8 0cm 5% 8mph 9mph 1006mB
18:00 3410m 26°C 26_7 0cm 3% 7mph 14mph 1007mB
21:00 3420m 13°C 13_6 0cm 1% 6mph 13mph 1009mB
0:00 3394m 11°C 11_4 0cm 0% 4mph 6mph 1010mB
3:00 3343m 10°C 10_4 0cm 0% 4mph 5mph 1010mB
6:00 3263m 10°C 10_3 0cm 0% 3mph 5mph 1011mB
9:00 3227m 18°C 18_3 0cm 0% 3mph 4mph 1011mB
12:00 3235m 25°C 25_4 0cm 8% 4mph 6mph 1010mB
15:00 3253m 24°C 24_4 0cm 51% 4mph 7mph 1010mB
18:00 3372m 24°C 24_4 0cm 32% 4mph 5mph 1011mB
21:00 3425m 12°C 12_4 0cm 37% 4mph 5mph 1014mB
0:00 3208m 11°C 11_3 0cm 25% 3mph 4mph 1014mB
3:00 3194m 10°C 10_2 0cm 33% 2mph 3mph 1014mB
6:00 3152m 10°C 10_3 0cm 17% 3mph 5mph 1015mB
9:00 3283m 17°C 17_5 0cm 3% 5mph 5mph 1014mB
12:00 3373m 20°C 20_4 0cm 10% 4mph 4mph 1013mB
15:00 3391m 19°C 19_5 0cm 34% 5mph 8mph 1013mB
18:00 3345m 19°C 19_3 0cm 27% 3mph 4mph 1014mB
21:00 3336m 11°C 11_1 0cm 2% 1mph 1mph 1015mB
0:00 3177m 11°C 11_3 0cm 13% 3mph 5mph 1014mB
3:00 3100m 11°C 11_4 0cm 88% 4mph 6mph 1014mB
6:00 2982m 11°C 11_4 0cm 92% 4mph 7mph 1014mB
9:00 2978m 12°C 12_6 0cm 86% 6mph 9mph 1013mB
12:00 2946m 15°C 15_6 0cm 89% 6mph 11mph 1012mB
15:00 2861m 14°C 14_3 0cm 100% 3mph 7mph 1012mB
18:00 2766m 14°C 14_4 0cm 100% 4mph 9mph 1012mB
21:00 2814m 8°C 8_4 0cm 98% 4mph 8mph 1012mB
0:00 2726m 7°C 7_4 0cm 98% 4mph 5mph 1012mB
3:00 2728m 7°C 7_5 0cm 87% 5mph 8mph 1011mB
6:00 2734m 7°C 7_5 0cm 93% 5mph 14mph 1011mB
9:00 2652m 9°C 9_6 0cm 99% 6mph 13mph 1011mB
12:00 2583m 11°C 11_11 0cm 96% 11mph 20mph 1012mB
15:00 2426m 9°C 9_11 0cm 99% 11mph 21mph 1013mB
18:00 2374m 9°C 9_8 0cm 99% 8mph 18mph 1014mB
21:00 2456m 6°C 6_6 0cm 88% 6mph 15mph 1015mB
0:00 2397m 5°C 5_5 0cm 88% 5mph 12mph 1015mB
3:00 2464m 5°C 5_3 0cm 90% 3mph 4mph 1015mB
6:00 2489m 5°C 5_4 0cm 93% 4mph 6mph 1015mB
9:00 2464m 7°C 7_4 0cm 94% 4mph 5mph 1015mB
12:00 2573m 13°C 13_6 0cm 93% 6mph 8mph 1015mB
15:00 2648m 12°C 12_6 0cm 97% 6mph 10mph 1015mB
18:00 2574m 12°C 12_4 0cm 97% 4mph 8mph 1017mB
21:00 2584m 10°C 10_1 0cm 97% 1mph 2mph 1018mB
0:00 2544m 10°C 10_1 0cm 98% 1mph 2mph 1017mB
3:00 2536m 10°C 10_1 0cm 99% 1mph 1mph 1017mB
6:00 2525m 10°C 10_3 0cm 99% 3mph 4mph 1017mB
9:00 2557m 11°C 11_5 0cm 85% 5mph 6mph 1016mB
12:00 2645m 15°C 15_5 0cm 87% 5mph 5mph 1016mB
15:00 2755m 15°C 15_5 0cm 76% 5mph 6mph 1015mB
18:00 2726m 15°C 15_3 0cm 48% 3mph 4mph 1016mB
21:00 2724m 10°C 10_1 0cm 16% 1mph 2mph 1017mB
0:00 2740m 9°C 9_2 0cm 20% 2mph 3mph 1017mB
3:00 2610m 9°C 9_3 0cm 88% 3mph 3mph 1017mB
6:00 2639m 9°C 9_3 0cm 63% 3mph 3mph 1017mB
9:00 2652m 14°C 14_6 0cm 69% 6mph 6mph 1017mB
12:00 2689m 17°C 17_6 0cm 84% 6mph 10mph 1016mB
15:00 2725m 14°C 14_3 0cm 100% 3mph 5mph 1016mB
18:00 2724m 14°C 14_1 0cm 100% 1mph 2mph 1016mB
21:00 2702m 11°C 11_3 0cm 100% 3mph 4mph 1017mB
0:00 2687m 10°C 10_4 0cm 94% 4mph 4mph 1017mB
3:00 2640m 9°C 9_3 0cm 76% 3mph 4mph 1018mB
6:00 2672m 9°C 9_2 0cm 86% 2mph 3mph 1018mB
Afternoon 0mm 6.4375 2903m 18°C 18_1 0cm 98% 1mph 2mph 1017mB
Morning 0mm 0.875 2898m 9°C 9_2 0cm 76% 2mph 2mph 1018mB
Afternoon 0.192708mm 5.8125 3079m 21°C 21_2 0cm 98% 2mph 3mph 1015mB
Morning 0.00520833mm 1.375 3045m 11°C 11_2 0cm 78% 2mph 3mph 1015mB
Afternoon 0.317708mm 9.125 3217m 22°C 22_2 0cm 97% 2mph 3mph 1013mB
Morning 0.0208333mm 0 3185m 11°C 11_3 0cm 48% 3mph 4mph 1015mB
Afternoon 0.421875mm 5.4375 3352m 24°C 24_2 0cm 34% 2mph 3mph 1014mB
Morning 0.0520833mm 1.4375 3318m 12°C 12_4 0cm 31% 4mph 6mph 1016mB
Afternoon 1.00521mm 5.25 3489m 25°C 25_3 0cm 61% 3mph 3mph 1014mB
Morning 0.380208mm 0 3509m 13°C 13_4 0cm 40% 4mph 6mph 1014mB
Afternoon 0mm 8.0625 3696m 25°C 25_3 0cm 41% 3mph 4mph 1011mB
Morning 0mm 1.0625 3710m 15°C 15_3 0cm 88% 3mph 6mph 1012mB

16 day outlook at a glance

Forecast issued: 26/05/2019 11:01:50

Chat

Your comments and questions. In a resort? Let us know what it's like!


Characters left 250

For terms and conditions see Readers Comments on the Cookie and privacy policy page.